This is the latest recevied weather packets stored in our database for station/object KB3HLL. If no packets are shown the sender has not sent any weather packets the latest 10 day(s).
| Time | Temp. | Humidity | Pressure | Rain* | Wind** | Luminosity | Snow |
|---|---|---|---|---|---|---|---|
| 1777748778 | 7.22° C | 65% | 1014 hPa | 0 mm | - | 120 W/m² | - |
| 1777748477 | 7.22° C | 65% | 1014 hPa | 0 mm | - | 114 W/m² | - |
| 1777748177 | 7.22° C | 64% | 1013.9 hPa | 0 mm | - | 124 W/m² | - |
| 1777747877 | 7.22° C | 63% | 1014 hPa | 0 mm | - | 156 W/m² | - |
| 1777747578 | 7.22° C | 63% | 1014 hPa | 0 mm | - | 280 W/m² | - |
| 1777747278 | 7.22° C | 62% | 1014 hPa | 0 mm | - | 962 W/m² | - |
| 1777746977 | 7.22° C | 62% | 1014 hPa | 0 mm | - | 780 W/m² | - |
| 1777746677 | 7.22° C | 64% | 1014 hPa | 0 mm | - | 314 W/m² | - |
| 1777746378 | 7.22° C | 64% | 1014 hPa | 0 mm | - | 424 W/m² | - |
| 1777746078 | 7.22° C | 64% | 1014 hPa | 0 mm | - | 361 W/m² | - |
| 1777745778 | 7.22° C | 63% | 1014.1 hPa | 0 mm | - | 336 W/m² | - |
| 1777745477 | 7.22° C | 64% | 1014.1 hPa | 0 mm | - | 330 W/m² | - |
| 1777745177 | 7.22° C | 64% | 1014.1 hPa | 0 mm | - | 332 W/m² | - |
| 1777744878 | 6.67° C | 69% | 1014.1 hPa | 0 mm | - | 295 W/m² | - |
| 1777744578 | 6.67° C | 65% | 1014 hPa | 0 mm | - | 284 W/m² | - |
| 1777744278 | 6.67° C | 64% | 1014 hPa | 0 mm | - | 317 W/m² | - |
| 1777743977 | 6.67° C | 65% | 1014.1 hPa | 0 mm | - | 168 W/m² | - |
| 1777743678 | 6.67° C | 66% | 1014.1 hPa | 0 mm | - | 147 W/m² | - |
| 1777743377 | 6.67° C | 66% | 1014.1 hPa | 0 mm | - | 178 W/m² | - |
| 1777743078 | 6.67° C | 64% | 1014 hPa | 0 mm | - | 144 W/m² | - |
| 1777742778 | 7.22° C | 63% | 1014 hPa | 0 mm | - | 189 W/m² | - |
| 1777742478 | 7.22° C | 62% | 1014 hPa | 0 mm | - | 396 W/m² | - |
| 1777742178 | 7.22° C | 62% | 1014 hPa | 0 mm | - | 803 W/m² | - |
| 1777741878 | 6.67° C | 65% | 1014 hPa | 0 mm | - | 614 W/m² | - |
| 1777741578 | 6.67° C | 68% | 1014.1 hPa | 0 mm | - | 350 W/m² | - |
* Rain latest hour (hover to see other rain measurements)
** Current wind speed in m/s (hover to see current wind gust speed)